1521190800.11,21026,9.19,72130.5,-3.57,-5.23,-5.15,0,*53
1521190801.37,21027,9.19,72132.3,-3.57,-5.23,-5.15,0,*52
1521190802.62,21028,9.19,72142.5,-3.57,-5.23,-5.15,0,*5D
1521190803.88,21029,9.19,72140.3,-3.57,-5.23,-5.15,0,*5C
1521190805.15,21030,9.19,72146.5,-3.55,-5.11,-5.11,0,*53
1521190806.42,21031,9.19,72148.3,-3.55,-5.11,-5.15,0,*56
1521190807.68,21032,9.19,72132.5,-3.57,-5.15,-5.15,0,*53
1521190808.94,21033,9.19,72136.3,-3.57,-5.15,-5.15,0,*52
1521190810.19,21034,9.19,72136.8,-3.57,-5.15,-5.11,0,*51
1521190811.45,21035,9.19,72138.8,-3.57,-5.15,-5.11,0,*50
1521190812.71,21036,9.19,72128.3,-3.57,-5.15,-5.11,0,*53
1521190813.96,21037,9.19,72134.8,-3.57,-5.23,-5.11,0,*57
1521190815.22,21038,9.19,72140.0,-3.57,-5.15,-5.11,0,*5D
1521190816.48,21039,9.19,72132.8,-3.57,-5.23,-5.11,0,*59
1521190817.73,21040,9.19,72128.0,-3.57,-5.15,-5.11,0,*52
1521190818.99,21041,9.19,72126.0,-3.57,-5.15,-5.11,0,*53
1521190820.24,21042,9.19,72136.5,-3.57,-5.11,-5.11,0,*54
1521190821.51,21043,9.19,72144.3,-3.55,-5.11,-5.07,0,*50
1521190822.77,21044,9.19,72150.5,-3.57,-5.23,-5.11,0,*53
1521190824.03,21045,9.19,72146.3,-3.57,-5.15,-5.11,0,*57
1521190825.29,21046,9.19,72144.0,-3.57,-5.23,-5.11,0,*51
1521190826.56,21047,9.19,72128.3,-3.59,-5.15,-5.11,0,*5B
1521190827.82,21048,9.19,72124.8,-3.57,-5.23,-5.15,0,*5B
1521190829.08,21049,9.19,72122.5,-3.57,-5.15,-5.15,0,*5F
1521190830.34,21050,9.19,72124.3,-3.57,-5.23,-5.15,0,*52
1521190831.59,21051,9.19,72132.5,-3.57,-5.15,-5.15,0,*56
1521190832.85,21052,9.19,72130.3,-3.57,-5.23,-5.15,0,*50
1521190834.11,21053,9.19,72130.8,-3.57,-5.15,-5.15,0,*54
1521190835.38,21054,9.19,72138.8,-3.55,-5.11,-5.11,0,*51
1521190836.65,21055,9.19,72144.5,-3.55,-5.11,-5.11,0,*50
1521190837.93,21056,9.19,72154.5,-3.55,-5.19,-5.23,0,*5A
1521190839.18,21057,9.19,72162.0,-3.57,-5.23,-5.15,0,*55
1521190840.44,21058,9.19,72166.0,-3.57,-5.23,-5.15,0,*5A
1521190841.72,21059,9.19,72166.8,-3.55,-5.19,-5.11,0,*54
1521190842.98,21060,9.19,72156.0,-3.57,-5.23,-5.15,0,*51
1521190844.23,21061,9.19,72158.0,-3.57,-5.23,-5.15,0,*50
1521190845.49,21062,9.19,72160.3,-3.57,-5.15,-5.15,0,*56
1521190846.75,21063,9.19,72140.8,-3.57,-5.15,-5.15,0,*57
1521190848.0,21064,9.19,72154.3,-3.57,-5.15,-5.15,0,*50
1521190849.26,21065,9.19,72152.8,-3.57,-5.23,-5.15,0,*54
1521190850.52,21066,9.19,72144.3,-3.57,-5.23,-5.15,0,*57
1521190851.78,21067,9.19,72152.0,-3.57,-5.23,-5.15,0,*56
1521190853.04,21068,9.19,72128.3,-3.57,-5.23,-5.15,0,*59
1521190854.29,21069,9.19,72132.3,-3.57,-5.15,-5.15,0,*5D
1521190855.56,21070,9.19,72136.5,-3.55,-5.11,-5.11,0,*57
1521190856.82,21071,9.19,72138.3,-3.57,-5.23,-5.15,0,*51
1521190858.08,21072,9.19,72140.8,-3.57,-5.15,-5.15,0,*57
1521190859.34,21073,9.19,72140.5,-3.57,-5.15,-5.15,0,*56
1521190860.6,21074,9.19,72134.8,-3.57,-5.23,-5.23,0,*51
1521190861.86,21075,9.19,72132.0,-3.57,-5.23,-5.15,0,*55
1521190863.11,21076,9.19,72142.0,-3.57,-5.15,-5.15,0,*53
1521190864.37,21077,9.19,72146.5,-3.57,-5.27,-5.15,0,*53
1521190865.62,21078,9.19,72146.5,-3.57,-5.23,-5.15,0,*58
1521190866.88,21079,9.19,72150.3,-3.57,-5.23,-5.15,0,*59
1521190868.16,21080,9.19,72148.5,-3.59,-5.23,-5.15,0,*51
1521190869.44,21081,9.19,72154.0,-3.59,-5.15,-5.15,0,*55
1521190870.73,21082,9.19,72142.0,-3.59,-5.23,-5.23,0,*56
1521190871.98,21083,9.19,72136.3,-3.57,-5.27,-5.15,0,*58
1521190873.24,21084,9.19,72140.8,-3.57,-5.27,-5.23,0,*5A
1521190874.5,21085,9.19,72156.0,-3.57,-5.23,-5.23,0,*5F
1521190875.76,21086,9.19,72158.3,-3.57,-5.15,-5.15,0,*5C
1521190877.02,21087,9.19,72162.0,-3.57,-5.15,-5.15,0,*5D
1521190878.28,21088,9.19,72152.0,-3.57,-5.15,-5.23,0,*57
1521190879.56,21089,9.19,72140.8,-3.59,-5.23,-5.15,0,*58
1521190880.84,21090,9.19,72120.8,-3.59,-5.23,-5.23,0,*55
1521190882.13,21091,9.19,72118.3,-3.59,-5.15,-5.23,0,*51
1521190883.41,21092,9.19,72124.5,-3.59,-5.23,-5.23,0,*57
1521190884.69,21093,9.19,72080.3,-3.59,-5.23,-5.15,0,*53
1521190885.95,21094,9.19,72090.3,-3.61,-5.27,-5.19,0,*57
1521190887.2,21095,9.19,72104.3,-3.61,-5.27,-5.19,0,*56
1521190888.46,21096,9.19,72112.5,-3.61,-5.31,-5.27,0,*5F
1521190889.74,21097,9.19,72126.3,-3.59,-5.27,-5.15,0,*53
1521190891.0,21098,9.19,72116.3,-3.61,-5.27,-5.27,0,*56
1521190892.27,21099,9.19,72108.3,-3.59,-5.27,-5.15,0,*5D
1521190893.55,21100,9.19,72108.5,-3.59,-5.23,-5.15,0,*58
1521190894.84,21101,9.19,72120.5,-3.59,-5.23,-5.15,0,*59
1521190896.12,21102,9.19,72126.8,-3.59,-5.23,-5.15,0,*5A
1521190897.4,21103,9.19,72128.8,-3.59,-5.27,-5.23,0,*5A
1521190898.68,21104,9.19,72130.3,-3.59,-5.23,-5.19,0,*50
1521190899.96,21105,9.19,72122.5,-3.59,-5.23,-5.15,0,*5D
1521190901.22,21106,9.19,72120.0,-3.61,-5.31,-5.27,0,*57
1521190902.48,21107,9.19,72104.3,-3.61,-5.31,-5.27,0,*56
1521190903.74,21108,9.19,72098.3,-3.61,-5.23,-5.27,0,*5A
1521190905.02,21109,9.19,72092.0,-3.59,-5.23,-5.23,0,*54
1521190906.28,21110,9.19,72112.5,-3.61,-5.31,-5.19,0,*5D
1521190907.56,21111,9.19,72110.0,-3.59,-5.27,-5.15,0,*5C
1521190908.84,21112,9.19,72096.3,-3.59,-5.23,-5.15,0,*5B
1521190910.1,21113,9.19,72094.8,-3.61,-5.31,-5.27,0,*53
1521190911.35,21114,9.19,72102.5,-3.61,-5.27,-5.19,0,*5E
1521190912.61,21115,9.19,72102.5,-3.61,-5.31,-5.27,0,*55
1521190913.9,21116,9.19,72098.3,-3.59,-5.15,-5.23,0,*5F
1521190915.18,21117,9.19,72096.3,-3.59,-5.23,-5.15,0,*5E
1521190916.44,21118,9.19,72102.0,-3.61,-5.27,-5.27,0,*5F
1521190917.69,21119,9.19,72106.3,-3.61,-5.27,-5.27,0,*5E
1521190918.95,21120,9.19,72110.3,-3.61,-5.27,-5.27,0,*54
1521190920.2,21121,9.19,72116.8,-3.61,-5.27,-5.19,0,*58
1521190921.46,21122,9.19,72122.8,-3.61,-5.27,-5.19,0,*5B
1521190922.74,21123,9.19,72126.3,-3.59,-5.23,-5.15,0,*59
1521190924.0,21124,9.19,72120.5,-3.61,-5.31,-5.19,0,*5A
1521190925.28,21125,9.19,72124.0,-3.59,-5.23,-5.19,0,*53
1521190926.53,21126,9.19,72132.5,-3.61,-5.27,-5.27,0,*52
1521190927.79,21127,9.19,72118.8,-3.61,-5.31,-5.19,0,*59
1521190929.07,21128,9.19,72124.3,-3.59,-5.27,-5.15,0,*56
1521190930.33,21129,9.19,72122.8,-3.61,-5.23,-5.19,0,*54
1521190931.58,21130,9.19,72124.3,-3.61,-5.19,-5.27,0,*58
1521190932.84,21131,9.19,72126.8,-3.61,-5.23,-5.19,0,*5D
1521190934.09,21132,9.19,72128.3,-3.61,-5.27,-5.19,0,*5A
1521190935.35,21133,9.19,72134.3,-3.61,-5.27,-5.19,0,*5B
1521190936.61,21134,9.19,72124.5,-3.61,-5.27,-5.27,0,*51
1521190937.89,21135,9.19,72130.3,-3.59,-5.23,-5.15,0,*5E
1521190939.14,21136,9.19,72120.5,-3.61,-5.27,-5.19,0,*5E
1521190940.4,21137,9.19,72122.3,-3.61,-5.27,-5.19,0,*5F
1521190941.65,21138,9.19,72134.3,-3.61,-5.19,-5.19,0,*5D
1521190942.9,21139,9.19,72138.8,-3.61,-5.19,-5.19,0,*5C
1521190944.16,21140,9.19,72146.0,-3.61,-5.19,-5.19,0,*52
1521190945.41,21141,9.19,72150.8,-3.61,-5.19,-5.19,0,*53
1521190946.67,21142,9.19,72132.8,-3.61,-5.19,-5.15,0,*5C
1521190947.92,21143,9.19,72104.5,-3.61,-5.19,-5.19,0,*51
1521190949.18,21144,9.19,72092.5,-3.61,-5.27,-5.19,0,*5B
1521190950.43,21145,9.19,72124.8,-3.61,-5.27,-5.19,0,*5A
1521190951.71,21146,9.19,72128.5,-3.59,-5.15,-5.27,0,*5E
1521190952.97,21147,9.19,72120.5,-3.61,-5.27,-5.19,0,*58
1521190954.22,21148,9.19,72106.8,-3.61,-5.19,-5.19,0,*5A
1521190955.48,21149,9.19,72116.0,-3.61,-5.19,-5.19,0,*5B
1521190956.73,21150,9.19,72106.3,-3.61,-5.19,-5.19,0,*53
1521190957.99,21151,9.19,72094.3,-3.61,-5.19,-5.19,0,*52
1521190959.24,21152,9.19,72102.0,-3.61,-5.19,-5.19,0,*51
1521190960.5,21153,9.19,72114.8,-3.61,-5.27,-5.19,0,*5D
1521190961.75,21154,9.19,72126.0,-3.61,-5.27,-5.19,0,*5A
1521190963.01,21155,9.19,72116.5,-3.61,-5.19,-5.19,0,*56
1521190964.26,21156,9.19,72110.5,-3.61,-5.27,-5.19,0,*58
1521190965.51,21157,9.19,72110.8,-3.61,-5.19,-5.19,0,*54
1521190966.77,21158,9.19,72120.5,-3.61,-5.19,-5.19,0,*5B
1521190968.02,21159,9.19,72110.3,-3.61,-5.19,-5.19,0,*5A
1521190969.3,21160,9.19,72122.8,-3.59,-5.15,-5.15,0,*5B
1521190970.56,21161,9.19,72110.8,-3.61,-5.19,-5.19,0,*51
1521190971.82,21162,9.19,72118.0,-3.61,-5.31,-5.15,0,*54
1521190973.07,21163,9.19,72122.0,-3.61,-5.19,-5.15,0,*5F
1521190974.32,21164,9.19,72128.8,-3.61,-5.19,-5.15,0,*58
1521190975.58,21165,9.19,72126.8,-3.61,-5.19,-5.15,0,*59
1521190976.83,21166,9.19,72128.0,-3.61,-5.27,-5.15,0,*57
1521190978.11,21167,9.19,72136.8,-3.59,-5.15,-5.11,0,*58
1521190979.37,21168,9.19,72136.3,-3.61,-5.19,-5.19,0,*58
1521190980.62,21169,9.19,72130.3,-3.61,-5.19,-5.19,0,*59
1521190981.88,21170,9.19,72138.8,-3.61,-5.19,-5.15,0,*5D
1521190983.13,21171,9.19,72132.8,-3.61,-5.19,-5.15,0,*5C
1521190984.38,21172,9.19,72136.0,-3.61,-5.19,-5.15,0,*5F
1521190985.64,21173,9.19,72134.0,-3.61,-5.19,-5.15,0,*5E
1521190986.89,21174,9.19,72134.0,-3.61,-5.27,-5.19,0,*58
1521190988.15,21175,9.19,72130.0,-3.61,-5.19,-5.27,0,*59
1521190989.4,21176,9.19,72128.3,-3.61,-5.19,-5.19,0,*57
1521190990.66,21177,9.19,72118.8,-3.61,-5.19,-5.19,0,*56
1521190991.91,21178,9.19,72108.5,-3.61,-5.19,-5.27,0,*54
1521190993.18,21179,9.19,72110.8,-3.65,-5.31,-5.23,0,*5F
1521190994.44,21180,9.19,72118.3,-3.65,-5.23,-5.23,0,*5A
1521190995.7,21181,9.19,72122.0,-3.65,-5.31,-5.23,0,*58
1521190996.96,21182,9.19,72124.5,-3.65,-5.31,-5.23,0,*5B
1521190998.23,21183,9.19,72120.0,-3.65,-5.23,-5.23,0,*59
1521190999.49,21184,9.19,72126.8,-3.65,-5.23,-5.23,0,*5E
1521191000.75,21185,9.19,72126.8,-3.65,-5.23,-5.23,0,*5F
1521191002.01,21186,9.19,72120.5,-3.65,-5.31,-5.23,0,*5F
1521191003.27,21187,9.19,72104.0,-3.65,-5.23,-5.23,0,*5D
1521191004.53,21188,9.19,72110.5,-3.65,-5.31,-5.23,0,*51
1521191005.8,21189,9.19,72130.3,-3.65,-5.31,-5.23,0,*50
1521191007.06,21190,9.19,72124.5,-3.65,-5.31,-5.23,0,*58
1521191008.35,21191,9.19,72124.5,-3.67,-5.31,-5.23,0,*5B
1521191009.61,21192,9.19,72126.3,-3.65,-5.23,-5.23,0,*59
1521191010.9,21193,9.19,72150.0,-3.67,-5.31,-5.23,0,*59
1521191012.16,21194,9.19,72148.3,-3.65,-5.31,-5.23,0,*5C
1521191013.41,21195,9.19,72138.0,-3.61,-5.19,-5.15,0,*56
1521191014.67,21196,9.19,72124.0,-3.65,-5.31,-5.19,0,*57
1521191015.92,21197,9.19,72128.8,-3.61,-5.19,-5.19,0,*58
1521191017.19,21198,9.19,72130.5,-3.65,-5.31,-5.23,0,*50
1521191018.45,21199,9.19,72130.0,-3.65,-5.23,-5.23,0,*52
1521191019.71,21200,9.19,72126.8,-3.65,-5.23,-5.23,0,*51
1521191020.97,21201,9.19,72116.5,-3.65,-5.31,-5.23,0,*53
1521191022.26,21202,9.19,72122.8,-3.67,-5.23,-5.23,0,*51
1521191023.52,21203,9.19,72130.0,-3.65,-5.31,-5.23,0,*51
1521191024.78,21204,9.19,72134.3,-3.65,-5.23,-5.23,0,*55
1521191026.07,21205,9.19,72144.5,-3.67,-5.31,-5.23,0,*55
1521191027.34,21206,9.19,72134.5,-3.65,-5.23,-5.23,0,*57
1521191028.6,21207,9.19,72146.0,-3.65,-5.23,-5.23,0,*56
1521191029.86,21208,9.19,72148.3,-3.65,-5.31,-5.31,0,*59
1521191031.12,21209,9.19,72160.5,-3.65,-5.23,-5.23,0,*58
1521191032.38,21210,9.19,72154.8,-3.65,-5.31,-5.23,0,*53
1521191033.64,21211,9.19,72148.0,-3.65,-5.23,-5.23,0,*51
1521191034.9,21212,9.19,72162.5,-3.65,-5.31,-5.23,0,*51
1521191036.16,21213,9.19,72158.3,-3.65,-5.23,-5.23,0,*53
1521191037.43,21214,9.19,72158.8,-3.65,-5.23,-5.23,0,*54
1521191038.71,21215,9.19,72160.0,-3.67,-5.31,-5.31,0,*57
1521191039.97,21216,9.19,72170.8,-3.65,-5.23,-5.23,0,*56
1521191041.24,21217,9.19,72166.0,-3.65,-5.23,-5.23,0,*57
1521191042.5,21218,9.19,72166.3,-3.65,-5.31,-5.23,0,*5B
1521191043.76,21219,9.19,72168.3,-3.65,-5.31,-5.23,0,*5A
1521191045.02,21220,9.19,72162.3,-3.65,-5.31,-5.23,0,*50
1521191046.28,21221,9.19,72160.8,-3.65,-5.31,-5.31,0,*52
1521191047.54,21222,9.19,72154.5,-3.65,-5.31,-5.31,0,*51
1521191048.82,21223,9.19,72144.5,-3.67,-5.31,-5.31,0,*52
1521191050.11,21224,9.19,72146.0,-3.67,-5.31,-5.23,0,*56
1521191051.34,21225,9.19,72150.5,-3.65,-5.35,-5.23,0,*51
1521191052.6,21226,9.19,72148.3,-3.65,-5.31,-5.23,0,*56
1521191053.84,21227,9.19,72148.8,-3.65,-5.35,-5.23,0,*53
1521191055.13,21228,9.19,72156.5,-3.67,-5.23,-5.23,0,*59
1521191056.41,21229,9.19,72162.3,-3.67,-5.31,-5.23,0,*5B
1521191057.67,21230,9.19,72156.3,-3.65,-5.23,-5.31,0,*51
1521191058.91,21231,9.19,72158.0,-3.65,-5.35,-5.23,0,*54
1521191060.16,21232,9.19,72152.5,-3.65,-5.31,-5.31,0,*50
1521191061.45,21233,9.19,72148.5,-3.67,-5.31,-5.23,0,*50
1521191062.74,21234,9.19,72150.5,-3.67,-5.31,-5.23,0,*57
1521191063.97,21235,9.19,72142.0,-3.69,-5.39,-5.27,0,*54
1521191065.2,21236,9.19,72146.0,-3.69,-5.39,-5.27,0,*57
1521191066.43,21237,9.19,72158.5,-3.69,-5.35,-5.27,0,*5A
1521191067.72,21238,9.19,72144.3,-3.67,-5.31,-5.23,0,*5B
1521191069.01,21239,9.19,72152.5,-3.67,-5.23,-5.23,0,*59
1521191070.29,21240,9.19,72154.5,-3.67,-5.31,-5.31,0,*57
1521191071.58,21241,9.19,72154.3,-3.67,-5.31,-5.31,0,*56
1521191072.84,21242,9.19,72152.0,-3.65,-5.31,-5.23,0,*54
1521191074.13,21243,9.19,72160.3,-3.67,-5.23,-5.23,0,*54
1521191075.42,21244,9.19,72154.3,-3.67,-5.31,-5.23,0,*50
1521191076.7,21245,9.19,72158.0,-3.67,-5.31,-5.31,0,*52
1521191077.99,21246,9.19,72156.3,-3.67,-5.31,-5.23,0,*52
1521191079.28,21247,9.19,72152.0,-3.67,-5.31,-5.23,0,*53
1521191080.56,21248,9.19,72148.8,-3.67,-5.31,-5.23,0,*5C
1521191081.79,21249,9.19,72138.8,-3.69,-5.35,-5.27,0,*53
1521191082.99,21250,9.19,72156.8,-3.69,-5.35,-5.35,0,*58
1521191084.23,21251,9.19,72162.5,-3.69,-5.35,-5.27,0,*5A
1521191085.46,21252,9.19,72164.5,-3.69,-5.35,-5.27,0,*59
1521191086.74,21253,9.19,72140.3,-3.67,-5.31,-5.23,0,*56
1521191088.02,21254,9.19,72148.0,-3.71,-5.27,-5.27,0,*55
1521191089.25,21255,9.19,72132.0,-3.69,-5.27,-5.35,0,*5E
1521191090.48,21256,9.19,72130.0,-3.69,-5.35,-5.27,0,*5D
1521191091.73,21257,9.19,72120.8,-3.71,-5.35,-5.27,0,*55
1521191093.01,21258,9.19,72122.5,-3.71,-5.27,-5.27,0,*59
1521191094.21,21259,9.19,72120.0,-3.69,-5.35,-5.35,0,*51
1521191095.46,21260,9.19,72130.3,-3.69,-5.27,-5.27,0,*5B
1521191096.71,21261,9.19,72110.0,-3.71,-5.27,-5.35,0,*50
1521191097.91,21262,9.19,72114.0,-3.69,-5.35,-5.35,0,*59
1521191099.14,21263,9.19,72108.0,-3.69,-5.35,-5.27,0,*5B
1521191100.37,21264,9.19,72104.3,-3.69,-5.35,-5.27,0,*5C
1521191101.6,21265,9.19,72096.3,-3.69,-5.35,-5.27,0,*5D
1521191102.83,21266,9.19,72122.0,-3.69,-5.35,-5.27,0,*5E
1521191104.09,21267,9.19,72096.0,-3.69,-5.27,-5.27,0,*5C
1521191105.32,21268,9.19,72124.5,-3.69,-5.35,-5.27,0,*50
1521191106.58,21269,9.19,72090.0,-3.71,-5.35,-5.27,0,*58
1521191107.83,21270,9.19,72094.3,-3.71,-5.35,-5.27,0,*50
1521191109.07,21271,9.19,72102.5,-3.71,-5.27,-5.35,0,*51
1521191110.32,21272,9.19,72106.8,-3.71,-5.35,-5.27,0,*52
1521191111.54,21273,9.19,72088.3,-3.71,-5.35,-5.35,0,*50
1521191112.78,21274,9.19,72092.8,-3.69,-5.35,-5.27,0,*5D
1521191114.0,21275,9.19,72100.5,-3.69,-5.27,-5.35,0,*5C
1521191115.22,21276,9.19,72108.8,-3.71,-5.35,-5.35,0,*55
1521191116.45,21277,9.19,72120.0,-3.69,-5.35,-5.27,0,*5E
1521191117.7,21278,9.19,72090.3,-3.71,-5.35,-5.27,0,*58
1521191118.96,21279,9.19,72102.5,-3.71,-5.35,-5.27,0,*59
1521191120.18,21280,9.19,72110.8,-3.71,-5.35,-5.35,0,*5C
1521191121.41,21281,9.19,72114.0,-3.69,-5.35,-5.27,0,*57
1521191122.66,21282,9.19,72110.0,-3.71,-5.39,-5.27,0,*51
1521191123.91,21283,9.19,72092.8,-3.71,-5.35,-5.27,0,*5C
1521191125.13,21284,9.19,72094.8,-3.71,-5.35,-5.35,0,*58
1521191126.35,21285,9.19,72102.8,-3.71,-5.43,-5.35,0,*58
1521191127.6,21286,9.19,72096.8,-3.71,-5.35,-5.27,0,*59
1521191128.82,21287,9.19,72088.8,-3.71,-5.39,-5.35,0,*57
1521191130.07,21288,9.19,72082.0,-3.71,-5.39,-5.27,0,*5B
1521191131.29,21289,9.19,72086.8,-3.71,-5.39,-5.35,0,*59
1521191132.55,21290,9.19,72086.8,-3.71,-5.35,-5.27,0,*5E
1521191133.77,21291,9.19,72096.5,-3.71,-5.35,-5.35,0,*5C
1521191135.02,21292,9.19,72094.8,-3.73,-5.31,-5.39,0,*55
1521191136.25,21293,9.19,72102.8,-3.73,-5.39,-5.39,0,*5C
1521191137.47,21294,9.19,72096.8,-3.73,-5.39,-5.39,0,*5B
1521191138.75,21295,9.19,72098.3,-3.71,-5.27,-5.27,0,*58
1521191140.0,21296,9.19,72114.8,-3.71,-5.35,-5.27,0,*58
1521191141.22,21297,9.19,72126.0,-3.71,-5.35,-5.35,0,*5A
1521191142.45,21298,9.19,72118.8,-3.73,-5.39,-5.35,0,*5B
1521191143.7,21299,9.19,72118.5,-3.73,-5.31,-5.39,0,*5E
1521191144.96,21300,9.19,72114.3,-3.73,-5.39,-5.31,0,*5F
1521191146.18,21301,9.19,72104.5,-3.73,-5.43,-5.39,0,*5B
1521191147.41,21302,9.19,72126.0,-3.75,-5.43,-5.31,0,*56
1521191148.63,21303,9.19,72132.0,-3.73,-5.39,-5.39,0,*54
1521191149.89,21304,9.19,72122.3,-3.73,-5.39,-5.31,0,*5B
1521191151.11,21305,9.19,72114.5,-3.73,-5.39,-5.39,0,*52
1521191152.37,21306,9.19,72110.0,-3.73,-5.39,-5.31,0,*59
1521191153.63,21307,9.19,72122.5,-3.73,-5.39,-5.31,0,*58
1521191154.88,21308,9.19,72122.3,-3.71,-5.35,-5.27,0,*5E
1521191156.1,21309,9.19,72122.5,-3.71,-5.39,-5.35,0,*50
1521191157.35,21310,9.19,72128.8,-3.71,-5.39,-5.27,0,*5B
1521191158.57,21311,9.19,72118.3,-3.71,-5.43,-5.35,0,*54
1521191159.79,21312,9.19,72114.5,-3.73,-5.43,-5.39,0,*59
1521191161.05,21313,9.19,72106.0,-3.73,-5.39,-5.31,0,*5D
1521191162.27,21314,9.19,72102.8,-3.73,-5.43,-5.39,0,*5F
1521191163.52,21315,9.19,72122.5,-3.73,-5.43,-5.31,0,*56
1521191164.75,21316,9.19,72134.8,-3.73,-5.39,-5.39,0,*50
1521191165.97,21317,9.19,72118.5,-3.73,-5.39,-5.39,0,*51
1521191167.2,21318,9.19,72114.5,-3.75,-5.43,-5.31,0,*5D
1521191168.45,21319,9.19,72102.0,-3.73,-5.39,-5.31,0,*57
1521191169.68,21320,9.19,72114.3,-3.75,-5.31,-5.39,0,*5B
1521191170.93,21321,9.19,72118.3,-3.73,-5.43,-5.31,0,*51
1521191172.18,21322,9.19,72122.0,-3.73,-5.39,-5.31,0,*5F
1521191173.38,21323,9.19,72128.8,-3.75,-5.39,-5.39,0,*50
1521191174.64,21324,9.19,72124.0,-3.75,-5.31,-5.31,0,*57
1521191175.86,21325,9.19,72096.3,-3.75,-5.39,-5.31,0,*5E
1521191177.09,21326,9.19,72114.3,-3.75,-5.39,-5.31,0,*5D
1521191178.37,21327,9.19,72130.8,-3.73,-5.31,-5.31,0,*52
1521191179.63,21328,9.19,72124.8,-3.73,-5.39,-5.31,0,*55
1521191180.85,21329,9.19,72132.5,-3.75,-5.31,-5.39,0,*52
1521191182.05,21330,9.19,72136.0,-3.75,-5.39,-5.39,0,*52
1521191183.33,21331,9.19,72122.0,-3.73,-5.31,-5.31,0,*55
1521191184.62,21332,9.19,72122.3,-3.73,-5.31,-5.31,0,*56
1521191185.88,21333,9.19,72124.8,-3.73,-5.39,-5.31,0,*5F
1521191187.1,21334,9.19,72116.3,-3.75,-5.39,-5.31,0,*5E
1521191188.38,21335,9.19,72106.5,-3.73,-5.31,-5.31,0,*51
1521191189.64,21336,9.19,72106.3,-3.73,-5.39,-5.31,0,*5A
1521191190.89,21337,9.19,72098.5,-3.75,-5.31,-5.31,0,*55
1521191192.15,21338,9.19,72108.5,-3.75,-5.31,-5.31,0,*5A
1521191193.4,21339,9.19,72110.8,-3.73,-5.39,-5.31,0,*55
1521191194.66,21340,9.19,72114.3,-3.73,-5.39,-5.31,0,*5B
1521191195.92,21341,9.19,72120.5,-3.73,-5.39,-5.31,0,*5A
1521191197.17,21342,9.19,72116.3,-3.75,-5.31,-5.31,0,*57
1521191198.45,21343,9.19,72118.8,-3.73,-5.31,-5.31,0,*50
1521191199.74,21344,9.19,72128.8,-3.73,-5.31,-5.31,0,*57
1521191200.99,21345,9.19,72132.8,-3.75,-5.31,-5.31,0,*50
1521191202.28,21346,9.19,72134.8,-3.73,-5.31,-5.31,0,*55
1521191203.56,21347,9.19,72136.8,-3.73,-5.31,-5.31,0,*54
1521191204.81,21348,9.19,72136.3,-3.75,-5.31,-5.31,0,*5D
1521191206.1,21349,9.19,72138.3,-3.73,-5.31,-5.31,0,*5A
1521191207.35,21350,9.19,72138.5,-3.73,-5.39,-5.31,0,*5A
1521191208.61,21351,9.19,72130.5,-3.73,-5.39,-5.31,0,*5B
1521191209.89,21352,9.19,72138.3,-3.73,-5.31,-5.31,0,*50
1521191211.18,21353,9.19,72134.8,-3.73,-5.31,-5.31,0,*51
1521191212.43,21354,9.19,72130.3,-3.73,-5.39,-5.31,0,*5E
1521191213.66,21355,9.19,72128.0,-3.73,-5.39,-5.39,0,*57
1521191214.92,21356,9.19,72120.5,-3.73,-5.39,-5.31,0,*5C
1521191216.2,21357,9.19,72128.5,-3.73,-5.31,-5.31,0,*55
1521191217.46,21358,9.19,72134.0,-3.73,-5.39,-5.31,0,*52
1521191218.68,21359,9.19,72136.5,-3.75,-5.39,-5.31,0,*55
1521191219.94,21360,9.19,72134.3,-3.73,-5.39,-5.31,0,*59
1521191221.19,21361,9.19,72134.5,-3.73,-5.39,-5.31,0,*58
1521191222.45,21362,9.19,72130.3,-3.73,-5.39,-5.31,0,*5B
1521191223.7,21363,9.19,72126.8,-3.73,-5.39,-5.31,0,*5A
1521191224.96,21364,9.19,72126.8,-3.75,-5.31,-5.31,0,*53
1521191226.21,21365,9.19,72114.5,-3.75,-5.31,-5.31,0,*52
1521191227.5,21366,9.19,72110.0,-3.73,-5.31,-5.31,0,*57
1521191228.75,21367,9.19,72114.3,-3.73,-5.39,-5.31,0,*5E
1521191229.98,21368,9.19,72104.5,-3.75,-5.39,-5.31,0,*57
1521191231.26,21369,9.19,72108.8,-3.73,-5.31,-5.31,0,*58
1521191232.49,21370,9.19,72134.3,-3.73,-5.39,-5.39,0,*50
1521191233.68,21371,9.19,72136.0,-3.75,-5.43,-5.39,0,*5A
1521191234.94,21372,9.19,72124.3,-3.73,-5.39,-5.31,0,*5A
1521191236.14,21373,9.19,72098.3,-3.75,-5.39,-5.39,0,*55
1521191237.39,21374,9.19,72120.8,-3.73,-5.39,-5.31,0,*5C
1521191238.68,21375,9.19,72110.5,-3.73,-5.31,-5.31,0,*55
1521191239.9,21376,9.19,72108.3,-3.75,-5.39,-5.31,0,*58
1521191241.16,21377,9.19,72114.3,-3.73,-5.39,-5.31,0,*5F
1521191242.41,21378,9.19,72114.3,-3.73,-5.39,-5.31,0,*50
1521191243.67,21379,9.19,72114.5,-3.75,-5.31,-5.31,0,*5F
1521191244.89,21380,9.19,72106.5,-3.75,-5.39,-5.31,0,*51
1521191246.12,21381,9.19,72108.0,-3.75,-5.39,-5.31,0,*50
1521191247.35,21382,9.19,72118.5,-3.73,-5.39,-5.39,0,*5D
1521191248.63,21383,9.19,72116.0,-3.73,-5.31,-5.31,0,*5C
1521191249.88,21384,9.19,72116.8,-3.73,-5.39,-5.31,0,*53
1521191251.14,21385,9.19,72116.3,-3.75,-5.31,-5.31,0,*5C
1521191252.4,21386,9.19,72100.5,-3.73,-5.39,-5.31,0,*51
1521191253.62,21387,9.19,72100.5,-3.75,-5.39,-5.31,0,*56
1521191254.88,21388,9.19,72104.8,-3.75,-5.31,-5.31,0,*51
1521191256.13,21389,9.19,72108.0,-3.75,-5.31,-5.31,0,*50
1521191257.39,21390,9.19,72108.8,-3.73,-5.31,-5.39,0,*56
1521191258.61,21391,9.19,72102.5,-3.75,-5.31,-5.39,0,*51
1521191259.81,21392,9.19,72110.3,-3.75,-5.39,-5.39,0,*5A
1521191261.03,21393,9.19,72120.3,-3.75,-5.39,-5.31,0,*53
1521191262.29,21394,9.19,72108.8,-3.73,-5.39,-5.31,0,*52
1521191263.54,21395,9.19,72114.8,-3.75,-5.31,-5.31,0,*5D
1521191264.8,21396,9.19,72108.0,-3.75,-5.31,-5.31,0,*5E
1521191266.05,21397,9.19,72122.8,-3.75,-5.31,-5.31,0,*5F
1521191267.31,21398,9.19,72114.3,-3.73,-5.39,-5.31,0,*5E
1521191268.59,21399,9.19,72108.3,-3.73,-5.31,-5.31,0,*57
1521191269.82,21400,9.19,72096.8,-3.73,-5.39,-5.39,0,*50
1521191271.07,21401,9.19,72100.8,-3.75,-5.31,-5.31,0,*57
1521191272.33,21402,9.19,72116.8,-3.75,-5.31,-5.31,0,*54
1521191273.58,21403,9.19,72108.5,-3.75,-5.31,-5.31,0,*55
1521191274.84,21404,9.19,72110.5,-3.73,-5.39,-5.31,0,*5C
1521191276.06,21405,9.19,72110.3,-3.75,-5.39,-5.31,0,*5B
1521191277.29,21406,9.19,72110.3,-3.75,-5.39,-5.31,0,*58
1521191278.51,21407,9.19,72106.0,-3.75,-5.31,-5.39,0,*59
1521191279.71,21408,9.19,72112.3,-3.75,-5.39,-5.39,0,*5E
1521191280.97,21409,9.19,72118.3,-3.75,-5.31,-5.31,0,*5F
1521191282.19,21410,9.19,72112.8,-3.75,-5.39,-5.31,0,*5F
1521191283.45,21411,9.19,72122.5,-3.75,-5.31,-5.31,0,*56
1521191284.7,21412,9.19,72122.8,-3.75,-5.31,-5.31,0,*55
1521191285.96,21413,9.19,72124.3,-3.75,-5.31,-5.31,0,*54
1521191287.18,21414,9.19,72126.5,-3.75,-5.39,-5.27,0,*5C
1521191288.41,21415,9.19,72134.0,-3.75,-5.39,-5.31,0,*5A
1521191289.69,21416,9.19,72128.5,-3.73,-5.31,-5.31,0,*57
1521191290.98,21417,9.19,72140.3,-3.73,-5.31,-5.31,0,*56
1521191292.23,21418,9.19,72132.5,-3.75,-5.31,-5.31,0,*5F
1521191293.49,21419,9.19,72128.5,-3.73,-5.39,-5.31,0,*50
1521191294.74,21420,9.19,72114.5,-3.73,-5.39,-5.31,0,*5A
1521191296.0,21421,9.19,72100.5,-3.73,-5.39,-5.31,0,*5B
1521191297.28,21422,9.19,72108.8,-3.73,-5.31,-5.31,0,*50
1521191298.57,21423,9.19,72122.5,-3.73,-5.31,-5.31,0,*51
1521191299.79,21424,9.19,72132.0,-3.73,-5.39,-5.39,0,*56
1521191300.99,21425,9.19,72120.8,-3.75,-5.39,-5.39,0,*51
1521191302.25,21426,9.19,72128.8,-3.73,-5.39,-5.31,0,*5C
1521191303.5,21427,9.19,72138.8,-3.75,-5.31,-5.31,0,*53
1521191304.73,21428,9.19,72146.3,-3.75,-5.39,-5.31,0,*54
1521191305.98,21429,9.19,72142.3,-3.73,-5.39,-5.31,0,*53
1521191307.24,21430,9.19,72140.3,-3.73,-5.39,-5.31,0,*5B
1521191308.46,21431,9.19,72136.8,-3.75,-5.39,-5.31,0,*5C
1521191309.72,21432,9.19,72138.3,-3.75,-5.31,-5.31,0,*57
1521191310.95,21433,9.19,72138.8,-3.75,-5.39,-5.31,0,*5E
1521191312.2,21434,9.19,72154.0,-3.75,-5.31,-5.31,0,*51
1521191313.46,21435,9.19,72132.5,-3.73,-5.39,-5.31,0,*5E
1521191314.71,21436,9.19,72124.0,-3.75,-5.31,-5.31,0,*53
1521191315.94,21437,9.19,72126.0,-3.75,-5.39,-5.31,0,*5A
1521191317.16,21438,9.19,72126.3,-3.75,-5.39,-5.31,0,*55
1521191318.42,21439,9.19,72122.5,-3.75,-5.31,-5.31,0,*5C
1521191319.67,21440,9.19,72118.3,-3.75,-5.31,-5.31,0,*52
1521191320.9,21441,9.19,72114.0,-3.75,-5.39,-5.31,0,*5B
1521191322.12,21442,9.19,72114.8,-3.75,-5.39,-5.31,0,*58
1521191323.35,21443,9.19,72116.5,-3.75,-5.39,-5.31,0,*59
1521191324.55,21444,9.19,72116.0,-3.75,-5.39,-5.39,0,*56
1521191325.77,21445,9.19,72122.5,-3.75,-5.39,-5.31,0,*5F
1521191326.97,21446,9.19,72120.5,-3.75,-5.39,-5.39,0,*54